FW4803 Weather Reports


time (UTC)temp
C
wind
direction
speed
KPH
gust
KPH
rain 1hr
cm
rain 24hr
cm
rain mn
cm
humidity
%
barometer
mb
20260505041508 13 173 1.6 3.2 0.00 0.00 0.00 66 1016.3
20260505041008 12 232 1.6 3.2 0.00 0.00 0.00 66 1016.5
20260505035009 12 28 1.6 3.2 0.00 0.00 0.00 72 1016.3
20260505034508 12 37 1.6 3.2 0.00 0.00 0.00 72 1016.2
20260505034008 12 45 0.0 1.6 0.00 0.00 0.00 73 1016.3
20260505033508 12 1 0.0 1.6 0.00 0.00 0.00 73 1016.3
20260505033008 12 0 0.0 0.0 0.00 0.00 0.00 73 1016.4
20260505032508 12 0 0.0 0.0 0.00 0.00 0.00 73 1016.3
20260505032007 12 0 0.0 0.0 0.00 0.00 0.00 73 1016.3
20260505031508 12 90 0.0 3.2 0.00 0.00 0.00 73 1016.3
20260505031008 12 81 1.6 3.2 0.00 0.00 0.00 73 1016.3
20260505030008 12 0 0.0 0.0 0.00 0.00 0.00 72 1016.3
20260505025508 12 90 0.0 3.2 0.00 0.00 0.00 72 1016.2
20260505025017 12 108 1.6 3.2 0.00 0.00 0.00 72 1016.1
20260505024508 12 133 1.6 3.2 0.00 0.00 0.00 67 1016.3
20260505023008 12 270 0.0 1.6 0.00 0.00 0.00 66 1016.4
20260505022008 12 196 1.6 3.2 0.00 0.00 0.00 65 1016.4
20260505021507 12 168 1.6 3.2 0.00 0.00 0.00 65 1016.4
20260505021008 12 79 0.0 3.2 0.00 0.00 0.00 65 1016.4
20260505020508 12 55 1.6 3.2 0.00 0.00 0.00 69 1016.4
20260505020011 12 61 1.6 3.2 0.00 0.00 0.00 68 1016.3
20260505015509 12 61 1.6 3.2 0.00 0.00 0.00 67 1016.5
20260505015008 12 90 0.0 3.2 0.00 0.00 0.00 64 1016.6
20260505014007 12 91 1.6 3.2 0.00 0.00 0.00 64 1016.6
20260505013508 12 122 0.0 3.2 0.00 0.00 0.00 63 1016.6
20260505013007 12 107 1.6 3.2 0.00 0.00 0.00 64 1016.5
20260505012508 12 98 1.6 3.2 0.00 0.00 0.00 64 1016.7
20260505012007 12 118 1.6 3.2 0.00 0.00 0.00 64 1016.6
20260505011008 12 144 1.6 3.2 0.00 0.00 0.00 65 1016.6
20260505010009 12 102 1.6 3.2 0.00 0.00 0.00 71 1016.7
20260505005508 12 82 3.2 3.2 0.00 0.00 0.00 72 1016.7
20260505005008 12 84 3.2 3.2 0.00 0.00 0.00 72 1016.8
20260505004507 12 96 3.2 4.8 0.00 0.00 0.00 72 1016.8
20260505004008 12 78 3.2 4.8 0.00 0.00 0.00 72 1016.8
20260505003507 12 46 3.2 4.8 0.00 0.00 0.00 73 1016.7
20260505003008 12 14 1.6 3.2 0.00 0.00 0.00 74 1016.8
20260505002507 12 6 1.6 3.2 0.00 0.00 0.00 74 1016.9
20260505001507 12 80 0.0 3.2 0.00 0.00 0.00 74 1016.9
20260505001008 12 90 0.0 1.6 0.00 0.00 0.00 74 1017.0
20260505000508 12 0 0.0 0.0 0.00 0.00 0.00 74 1017.2
20260505000008 12 0 0.0 0.0 0.00 0.00 0.00 74 1017.1
20260504235507 12 0 0.0 0.0 0.00 0.00 0.00 74 1017.1
20260504235011 12 0 0.0 0.0 0.00 0.00 0.00 74 1017.3
20260504234507 12 0 0.0 0.0 0.00 0.00 0.00 74 1017.3
20260504234008 12 0 0.0 0.0 0.00 0.00 0.00 74 1017.3
20260504233508 12 46 0.0 3.2 0.00 0.00 0.00 74 1017.2
20260504233007 12 45 1.6 3.2 0.00 0.00 0.00 73 1017.3
20260504232508 12 47 3.2 3.2 0.00 0.00 0.00 73 1017.3
20260504232007 12 48 1.6 3.2 0.00 0.00 0.00 73 1017.4
20260504231508 12 90 0.0 3.2 0.00 0.00 0.00 73 1017.5
20260504231008 12 90 0.0 3.2 0.00 0.00 0.00 73 1017.6
20260504230507 12 90 0.0 3.2 0.00 0.00 0.00 73 1017.5
20260504230008 12 1 0.0 1.6 0.00 0.00 0.00 72 1017.6
20260504225507 12 1 0.0 1.6 0.00 0.00 0.00 72 1017.8
20260504225008 12 17 0.0 3.2 0.00 0.00 0.00 72 1017.6
20260504224508 12 13 0.0 3.2 0.00 0.00 0.00 72 1017.7
20260504224007 12 1 0.0 3.2 0.00 0.00 0.00 72 1017.7
20260504222508 12 69 0.0 3.2 0.00 0.00 0.00 70 1017.8
20260504222008 12 0 0.0 0.0 0.00 0.00 0.00 70 1017.8
20260504221007 12 0 0.0 0.0 0.00 0.00 0.00 69 1017.9
20260504220008 12 31 0.0 3.2 0.00 0.00 0.00 69 1017.9
20260504215507 12 31 0.0 3.2 0.00 0.00 0.00 65 1018.0
20260504215009 12 314 0.0 1.6 0.00 0.00 0.00 65 1017.9
20260504214508 12 327 1.6 3.2 0.00 0.00 0.00 64 1017.9
20260504213508 12 330 3.2 3.2 0.00 0.00 0.00 64 1018.0
20260504213008 12 5 1.6 3.2 0.00 0.00 0.00 63 1018.0
20260504212507 12 22 3.2 4.8 0.00 0.00 0.00 63 1018.1
20260504212008 12 346 3.2 6.4 0.00 0.00 0.00 63 1018.0
20260504211008 12 334 3.2 4.8 0.00 0.00 0.00 62 1018.0
20260504210507 12 355 3.2 4.8 0.00 0.00 0.00 62 1018.0
20260504210011 12 352 3.2 4.8 0.00 0.00 0.00 62 1018.0
20260504205507 12 347 3.2 4.8 0.00 0.00 0.00 62 1018.0
20260504204507 12 1 1.6 3.2 0.00 0.00 0.00 62 1018.1
20260504204007 12 1 1.6 3.2 0.00 0.00 0.00 63 1018.1
20260504203508 13 0 0.0 0.0 0.00 0.00 0.00 63 1018.1
20260504203008 13 0 0.0 0.0 0.00 0.00 0.00 63 1018.2
20260504201508 13 0 0.0 0.0 0.00 0.00 0.00 62 1018.1
20260504201008 13 0 0.0 0.0 0.00 0.00 0.00 62 1018.2
20260504200517 13 0 0.0 0.0 0.00 0.00 0.00 62 1018.3
20260504200008 13 0 0.0 0.0 0.00 0.00 0.00 62 1018.3
20260504195507 13 0 0.0 0.0 0.00 0.00 0.00 62 1018.2
20260504195009 13 0 0.0 0.0 0.00 0.00 0.00 62 1018.3
20260504194007 13 158 0.0 3.2 0.00 0.00 0.00 62 1018.2
20260504193507 13 254 1.6 3.2 0.00 0.00 0.00 61 1018.1
20260504192507 13 233 1.6 3.2 0.00 0.00 0.00 60 1018.1
20260504192008 13 256 3.2 4.8 0.00 0.00 0.00 60 1018.1
20260504191508 13 243 3.2 4.8 0.00 0.00 0.00 59 1017.9
20260504191008 13 193 1.6 4.8 0.00 0.00 0.00 58 1018.1
20260504190508 13 96 1.6 3.2 0.00 0.00 0.00 54 1018.2
20260504190009 13 130 1.6 3.2 0.00 0.00 0.00 56 1018.1
20260504185507 14 157 1.6 3.2 0.00 0.00 0.00 58 1018.0
20260504185008 14 191 1.6 3.2 0.00 0.00 0.00 57 1018.0
20260504183508 14 226 3.2 4.8 0.00 0.00 0.00 54 1018.0
20260504183011 14 232 3.2 4.8 0.00 0.00 0.00 53 1017.9
20260504182509 15 252 3.2 3.2 0.00 0.00 0.00 42 1017.8
20260504182007 14 258 3.2 3.2 0.00 0.00 0.00 48 1017.7
20260504181507 14 257 1.6 3.2 0.00 0.00 0.00 52 1017.7
20260504181007 15 225 1.6 3.2 0.00 0.00 0.00 45 1017.7
20260504180508 15 251 1.6 4.8 0.00 0.00 0.00 35 1017.7
20260504180008 15 47 3.2 4.8 0.00 0.00 0.00 35 1017.6
20260504175512 15 26 3.2 6.4 0.00 0.00 0.00 35 1017.6
20260504174507 15 321 6.4 9.7 0.00 0.00 0.00 33 1017.5
20260504174007 15 336 8.0 11.3 0.00 0.00 0.00 33 1017.6
20260504173513 15 340 9.7 11.3 0.00 0.00 0.00 33 1017.5
20260504173008 15 338 9.7 11.3 0.00 0.00 0.00 32 1017.6
20260504172507 16 351 8.0 11.3 0.00 0.00 0.00 32 1017.6
20260504172008 16 4 8.0 11.3 0.00 0.00 0.00 32 1017.4
20260504170507 16 331 12.9 16.1 0.00 0.00 0.00 30 1017.4
20260504151007 18 4 12.9 16.1 0.00 0.00 0.00 23 1017.4
20260504150507 18 356 11.3 14.5 0.00 0.00 0.00 22 1017.4
20260504141007 18 353 14.5 17.7 0.00 0.00 0.00 22 1017.5
20260504140508 18 338 16.1 25.7 0.00 0.00 0.00 17 1017.5
20260504130507 18 286 17.7 22.5 0.00 0.00 0.00 23 1017.6
20260504110507 17 287 12.9 17.7 0.00 0.00 0.00 30 1018.8
20260504100507 16 350 24.1 33.8 0.00 0.00 0.00 32 1019.0
20260504081506 15 22 17.7 24.1 0.00 0.00 0.00 38 1019.1
20260504050009 10 245 3.2 4.8 0.00 0.10 0.00 66 1018.3